User: anonymous   Login
Location: ?ejeti?ky
(50.4060°N, 14.9016°E)
Time: 12:06:10
(UTC+00:00)
Language:

STARLINK-1257 - Orbit

View from above orbital plane
View from above orbital plane
View from above satellite
View from above satellite

Ground track
Ground track

The orbit data is extracted from the following two-line orbital elements,

1 45402C 20019AU  20227.14961412 -.00004074  00000-0 -27902-3 0  2272
2 45402  53.0008 265.5278 0001267  92.4774 323.7266 15.05583666    12
Epoch (UTC): 14 August 2020 03:35:26
Eccentricity: 0.0001267
inclination: 53.0008°
perigee height: 549 km
apogee height: 550 km
right ascension of ascending node: 265.5278°
argument of perigee: 92.4774°
revolutions per day: 15.05583666
mean anomaly at epoch: 323.7266°
orbit number at epoch: 1

The dashed part of the orbit path shows where the satellite is in the earth's shadow,  

DLR